Temperature
18 18 17 17 17 17 17 17 17 17 17 17 16 16 16 16 16 16 16 16 16 16 16 16 16 16 16 16 16 16 16 16 16 16 16 16 16 16 16 16 16 16 15
18 18 17 17 17 17 17 16 16 16 16 16 16 16 16 16 16 16 16 16 16 16 16 16 16 16 16 16 16 16 16 16 16 15 15 15 15 15 15 15 15 15 15
18 18 17 17 17 17 16 16 16 16 16 16 16 16 16 15 15 16 15 15 15 15 15 15 15 15 15 15 15 15 15 15 15 15 15 15 15 15 15 15 15 15 15
18 17 17 17 17 16 16 16 16 16 16 16 16 15 15 15 15 15 15 15 15 15 15 15 15 15 15 15 15 15 15 15 15 14 14 14 14 14 14 14 14 14 14
17 17 17 17 16 16 16 16 15 15 15 15 15 15 15 15 15 15 15 15 15 15 15 15 15 15 15 15 15 15 15 14 14 14 14 14 14 14 14 14 14 14 14
17 17 16 16 16 16 16 15 15 15 15 15 15 15 15 15 15 15 15 15 15 15 15 15 14 14 15 15 14 14 14 14 14 14 14 14 14 14 14 14 13 13 13
16 16 16 16 16 16 15 15 15 15 15 15 15 15 15 15 15 15 15 15 15 14 14 15 14 14 14 14 14 14 14 14 14 14 14 14 14 14 14 14 13 13 13
16 16 16 15 15 16 15 15 15 15 15 15 14 15 14 15 15 15 15 15 14 14 14 14 14 14 14 14 14 14 14 14 14 14 14 14 14 13 13 13 13 13 13
16 16 15 15 15 15 15 15 15 15 15 15 14 14 14 14 14 15 15 14 14 14 14 14 14 14 14 14 14 14 14 13 13 13 13 13 13 13 13 13 13 13 13
16 16 15 15 15 15 15 15 15 15 15 15 14 14 14 14 14 15 14 14 14 14 14 14 14 14 14 13 13 13 13 13 13 13 13 13 13 13 13 13 13 13 12
15 15 15 15 15 15 15 15 15 15 15 14 14 14 14 14 14 14 14 14 14 13 13 13 14 14 13 13 13 13 13 13 13 13 13 13 13 13 13 13 13 13 12
15 15 15 15 15 15 15 15 15 15 15 14 14 14 14 14 14 14 14 13 13 13 13 13 13 13 13 13 13 13 13 13 13 12 13 13 13 13 13 13 13 12 12
15 15 15 15 15 15 15 15 15 15 14 14 14 14 14 14 14 14 14 13 13 13 13 13 13 13 13 13 13 13 13 13 12 12 12 12 12 12 12 12 12 12 12
14 15 15 15 15 15 15 15 15 14 14 14 14 14 14 13 13 13 13 13 13 13 13 12 13 13 13 13 13 13 13 12 12 12 12 12 12 12 12 12 12 12 12
14 14 14 15 15 15 15 15 14 14 14 14 14 14 13 13 13 13 13 13 13 12 12 12 12 12 12 12 12 12 12 12 12 12 12 12 12 12 12 12 12 12 12
14 14 14 14 14 14 14 14 14 14 14 14 14 14 13 13 13 13 13 13 13 12 12 12 12 12 12 12 12 12 12 12 12 12 11 11 11 11 11 12 12 11 11
14 14 14 14 14 14 14 14 14 14 14 14 14 13 13 13 13 13 13 12 12 12 12 12 12 12 12 12 12 12 12 12 12 11 11 11 11 11 11 11 11 11 11
14 14 14 14 14 14 14 14 14 14 14 14 14 13 13 13 13 12 12 12 12 12 12 12 12 12 11 11 11 11 11 11 11 11 11 11 11 11 11 11 11 11 11
14 14 14 14 14 14 14 14 14 14 14 14 14 13 13 13 12 12 12 12 12 12 12 12 12 11 11 11 11 11 11 11 11 11 11 11 11 11 11 11 11 11 11
14 14 14 14 14 14 14 14 14 14 14 14 14 13 13 13 12 12 12 12 12 12 12 11 11 11 11 11 11 11 11 11 11 11 10 10 11 10 10 11 11 11 11
13 14 14 14 14 14 14 14 14 14 14 14 14 13 13 13 13 12 12 12 12 11 11 11 11 11 11 11 11 11 11 11 10 10 10 10 10 10 11 11 11 11 11
13 14 14 14 14 14 14 14 14 14 14 13 13 13 13 13 13 12 12 12 12 12 11 11 11 11 11 11 10 10 10 10 10 10 10 10 10 10 10 10 10 10 10
13 13 14 14 14 14 14 14 13 13 13 13 13 13 13 12 12 12 12 12 11 11 11 11 11 11 11 10 10 10 10 10 10 10 10 10 10 10 10 10 10 10 10
13 13 13 13 13 13 13 13 13 13 13 13 13 13 13 12 12 12 12 11 11 11 11 11 10 11 10 10 10 10 10 10 10 10 10 10 10 10 10 10 10 10 10
13 13 13 13 13 13 13 13 13 13 13 13 12 12 12 12 12 12 11 11 11 11 11 11 10 10 10 10 10 10 10 10 10 10 10 10 10 10 9 9 9 9 9
13 13 13 13 13 13 13 13 13 13 12 12 12 12 12 12 11 11 11 11 10 10 10 10 10 10 10 10 10 10 10 10 10 10 9 9 9 9 9 9 9 9 9
Wind_Speed
4 4 3 3 3 3 2 1 1 1 1 1 1 1 1 1 1 1 2 1 1 2 2 2 2 2 2 2 2 1 1 1 2 1 0 0 0 1 1 1 3 4 4
3 4 3 3 3 2 2 1 1 2 2 1 1 1 2 1 1 2 3 2 2 2 2 2 2 2 3 2 2 2 1 1 2 2 1 1 0 1 1 2 2 3 3
3 3 3 3 3 2 2 2 2 2 2 2 2 2 2 2 2 2 2 3 3 3 2 2 2 2 3 2 2 2 2 1 1 2 2 1 1 1 0 2 1 1 2
2 3 2 3 3 3 2 2 2 2 2 2 2 3 3 2 2 2 2 3 3 3 2 2 2 2 2 2 2 2 2 1 1 2 2 2 1 1 1 1 1 1 1
2 2 2 2 2 2 2 2 2 2 3 2 3 3 3 3 3 2 3 4 3 3 3 2 2 2 2 2 2 1 1 1 1 1 2 2 1 1 1 2 2 1 1
2 2 1 1 2 2 2 2 2 2 2 2 3 3 3 3 1 1 2 3 3 4 3 3 3 2 2 2 2 2 1 2 2 2 2 2 2 2 2 2 2 2 2
1 1 1 1 1 1 2 2 2 2 2 2 3 2 2 1 1 1 2 3 4 3 3 3 4 2 2 1 2 3 3 4 4 3 3 3 3 2 2 2 2 2 3
1 1 1 2 2 2 2 2 2 2 2 3 3 3 2 2 2 2 3 4 4 3 3 3 3 2 2 1 2 2 3 3 4 4 3 3 3 2 2 3 3 2 2
1 2 2 2 2 2 2 3 2 2 3 3 3 3 3 2 2 2 3 3 3 3 4 3 3 3 3 3 2 2 2 3 3 3 4 3 3 3 3 1 2 2 3
2 2 2 3 3 3 3 3 2 3 3 3 2 2 3 3 3 3 3 3 3 3 3 3 4 4 4 4 4 3 3 3 2 2 2 2 3 4 4 3 3 3 2
2 2 2 3 3 2 2 2 3 3 3 3 2 2 3 4 4 4 4 3 3 3 2 2 2 4 5 5 5 4 5 3 3 2 2 2 2 2 3 3 3 3 3
1 2 2 2 3 2 3 3 3 3 3 3 3 3 3 2 3 3 4 5 4 3 3 2 2 4 4 5 5 6 6 3 3 3 2 2 2 2 2 2 3 3 3
2 2 3 3 2 2 3 4 3 3 3 3 2 3 2 2 1 3 4 5 5 3 3 2 2 4 4 5 7 6 5 4 3 3 3 2 2 2 2 1 1 2 4
3 3 3 3 2 1 2 2 2 2 2 2 2 2 2 1 1 1 2 2 2 2 3 4 4 5 4 4 3 4 4 4 3 3 2 2 1 1 1 1 1 2 2
4 4 3 3 2 2 2 2 2 1 2 3 2 2 2 1 1 1 2 2 2 2 2 2 2 2 2 3 3 3 3 3 3 2 2 1 1 1 1 1 1 2 2
5 4 3 3 2 2 2 1 1 2 3 4 3 2 1 1 1 2 3 3 3 3 2 2 2 2 3 3 2 2 3 3 2 2 2 2 2 2 2 1 1 2 2
5 4 4 3 3 3 3 3 2 1 1 3 4 4 4 3 2 3 2 2 4 3 3 3 3 3 3 2 2 2 2 2 2 2 2 2 2 2 1 1 1 1 1
5 5 4 4 3 3 4 3 3 3 2 2 3 5 6 6 5 4 2 1 1 2 2 2 2 2 2 2 2 2 2 1 1 1 1 1 1 1 1 1 2 1 2
5 4 4 4 4 4 4 4 4 3 2 2 2 3 5 4 4 4 3 2 2 2 2 2 1 1 1 1 0 0 0 1 1 1 2 2 1 1 1 2 1 2 2
4 5 5 5 4 4 4 3 2 2 2 2 2 2 3 3 3 3 3 3 3 2 2 2 1 1 1 1 1 1 1 1 2 2 2 2 2 2 2 2 2 2 2
4 4 6 5 4 4 3 3 2 2 2 2 2 4 5 4 4 3 3 3 3 2 1 1 1 1 1 1 1 1 1 1 1 2 2 2 2 2 2 2 3 2 2
4 4 4 4 4 3 3 3 3 3 3 3 2 3 5 4 3 2 2 2 2 1 1 1 1 1 1 1 1 0 1 1 1 1 1 1 1 1 1 2 2 1 1
5 5 4 4 3 3 3 3 3 3 2 2 2 2 3 3 1 1 1 1 1 1 1 0 0 1 1 1 1 1 0 1 1 1 1 1 1 2 2 2 2 2 2
5 5 4 3 2 2 2 3 3 2 1 1 1 1 2 2 2 2 1 1 1 1 1 1 1 1 2 2 2 1 1 1 2 1 1 2 3 3 2 2 2 3 2
4 4 3 2 2 2 3 2 2 1 2 2 1 1 1 1 1 1 1 1 1 1 1 2 1 1 2 1 2 2 3 3 2 2 1 2 3 3 3 2 2 2 2
4 4 3 2 3 3 3 2 2 2 2 2 1 1 2 1 1 0 0 0 1 1 1 1 1 2 2 2 3 4 4 4 4 3 2 2 2 2 2 2 2 2 2
Wind_Direction
183 182 191 189 211 215 228 258 238 260 195 189 195 254 258 236 249 276 289 282 287 292 293 307 308 314 310 306 312 291 263 227 231 257 261 324 105 98 133 161 175 166 175
172 181 189 178 196 214 218 230 233 223 223 207 211 230 258 244 234 251 264 272 264 273 286 292 293 295 305 306 310 303 276 236 208 237 241 247 223 175 215 236 208 190 167
165 172 186 194 196 203 216 222 235 234 235 231 226 239 248 256 248 258 261 271 268 264 261 264 278 289 293 305 292 291 273 250 210 214 238 233 250 211 211 277 266 178 190
160 170 179 203 207 208 206 201 228 239 244 243 237 254 247 249 260 266 270 260 262 266 260 250 259 260 275 284 270 273 270 260 244 233 232 233 223 217 196 228 251 233 257
160 180 191 194 211 206 200 200 219 238 242 239 238 246 246 238 251 254 266 259 256 260 259 246 244 218 219 253 268 261 248 236 243 245 244 237 229 218 236 242 240 218 256
170 186 202 198 225 216 199 201 216 227 236 242 240 240 252 260 278 257 259 274 259 251 253 255 247 206 207 219 244 271 252 231 236 241 255 242 242 239 248 249 243 226 241
187 176 170 204 227 224 221 209 218 219 230 243 250 242 239 254 260 290 288 268 256 250 249 252 261 247 183 215 228 243 257 258 236 235 240 247 251 244 237 242 237 244 247
213 214 203 214 224 234 233 223 225 224 237 245 253 242 232 250 238 244 281 260 257 247 237 235 237 252 229 227 232 234 243 249 234 224 233 252 254 242 240 240 229 226 242
226 238 229 224 234 234 244 236 233 236 238 237 246 236 230 237 245 250 259 262 252 247 239 226 215 213 221 207 210 229 255 267 255 223 212 227 234 227 221 224 233 227 247
237 255 241 234 233 235 244 242 237 233 234 235 241 245 238 225 229 238 243 254 263 257 241 217 200 200 203 203 214 222 240 261 280 277 219 220 217 216 215 207 217 231 249
230 248 247 243 236 226 246 246 243 240 234 236 234 238 235 223 213 220 230 242 265 278 261 235 208 192 212 220 221 223 231 253 267 249 239 223 221 223 220 215 211 218 238
251 255 259 251 254 240 236 242 234 237 238 233 231 244 250 220 195 214 228 240 253 259 261 254 226 211 219 226 227 223 224 234 248 245 239 238 224 228 229 210 205 206 220
264 268 269 257 245 241 244 246 229 227 240 248 245 253 250 208 194 218 228 247 254 253 272 275 258 233 227 229 225 218 212 220 230 238 237 238 235 225 213 201 205 206 224
260 265 253 246 238 229 258 266 263 257 258 268 271 277 278 211 189 269 251 249 255 259 279 272 249 239 229 234 226 213 214 217 219 228 237 228 223 230 210 194 212 224 230
267 261 254 254 251 233 234 269 270 268 229 233 254 263 272 281 261 274 257 261 273 269 275 261 247 240 235 224 225 218 213 208 215 228 227 216 214 225 243 244 227 240 236
259 254 256 255 249 240 228 254 274 228 208 196 200 207 261 190 209 255 257 257 256 240 212 235 247 243 246 240 224 215 213 212 211 216 214 211 215 219 234 257 254 231 247
254 253 258 259 259 252 233 226 235 219 213 219 218 207 211 227 241 255 259 286 277 218 206 226 240 252 251 234 226 235 232 215 192 201 214 219 222 224 227 242 245 241 261
248 248 249 254 257 252 247 241 230 230 216 225 225 212 213 221 227 236 245 311 292 209 228 237 247 256 259 248 231 233 220 194 184 194 211 229 240 241 244 237 233 233 245
246 251 254 255 256 251 249 248 238 239 228 212 188 185 205 219 225 234 218 239 250 253 269 282 263 253 244 227 204 180 203 195 194 194 203 218 238 245 254 255 245 246 249
238 233 245 262 263 259 248 248 251 246 242 214 206 177 170 193 216 218 218 236 247 249 252 262 263 255 206 188 188 188 218 201 195 206 221 225 230 238 242 245 247 245 239
246 229 233 253 259 261 257 257 257 262 262 255 225 171 175 203 216 206 201 210 231 246 246 246 247 193 185 173 170 172 190 214 211 225 233 228 232 244 247 244 239 244 245
261 241 230 246 254 255 253 257 262 248 252 260 238 176 187 222 226 208 202 199 215 221 227 229 233 186 164 152 144 163 229 247 249 238 248 260 259 255 265 263 258 262 269
261 254 239 239 254 242 239 247 257 259 254 252 232 194 195 228 238 202 193 190 169 183 186 214 245 182 125 101 104 113 305 299 293 268 261 260 266 268 259 250 244 246 249
261 263 260 250 235 243 244 246 260 271 275 277 243 218 212 217 228 214 188 176 184 186 170 164 148 87 77 63 63 77 64 31 342 328 309 277 273 272 267 252 251 255 254
258 260 258 252 249 250 243 241 259 287 295 294 291 261 254 246 247 218 175 179 182 184 154 133 129 115 102 74 52 52 64 56 38 8 305 270 273 278 266 255 248 252 259
256 257 247 245 253 245 236 224 232 242 258 268 279 299 287 265 235 210 166 198 205 159 141 135 124 117 113 95 82 68 61 49 31 3 322 268 264 269 266 258 259 245 239
Height
1502 1503 1503 1503 1504 1505 1505 1506 1506 1507 1507 1507 1507 1507 1507 1507 1507 1507 1507 1507 1507 1507 1507 1507 1507 1507 1507 1507 1507 1508 1508 1509 1509 1509 1510 1510 1511 1511 1511 1510 1511 1511 1511
1500 1501 1501 1502 1502 1503 1503 1503 1504 1504 1504 1505 1505 1505 1505 1505 1505 1505 1504 1505 1504 1504 1504 1504 1504 1504 1504 1504 1505 1505 1505 1506 1506 1506 1507 1508 1508 1508 1508 1509 1509 1509 1509
1499 1499 1499 1500 1500 1500 1501 1501 1501 1501 1502 1502 1502 1503 1502 1502 1502 1502 1502 1502 1502 1502 1502 1501 1501 1501 1501 1502 1502 1502 1503 1503 1504 1504 1504 1505 1506 1506 1506 1506 1507 1507 1508
1497 1497 1497 1498 1498 1498 1498 1498 1499 1499 1499 1499 1499 1500 1500 1500 1499 1499 1499 1499 1499 1499 1499 1499 1499 1499 1499 1499 1499 1500 1500 1500 1501 1501 1502 1502 1503 1504 1504 1504 1504 1505 1506
1495 1495 1495 1495 1496 1496 1496 1496 1496 1496 1496 1496 1496 1496 1497 1496 1496 1496 1496 1496 1496 1496 1496 1496 1496 1496 1496 1497 1497 1497 1497 1497 1498 1498 1499 1500 1501 1501 1502 1502 1502 1503 1503
1493 1493 1493 1493 1494 1494 1493 1494 1494 1494 1494 1493 1493 1493 1494 1494 1494 1494 1494 1493 1493 1493 1493 1493 1493 1493 1493 1494 1495 1495 1495 1495 1495 1496 1496 1497 1498 1499 1499 1500 1500 1500 1500
1492 1492 1492 1491 1491 1491 1491 1491 1491 1491 1491 1491 1491 1491 1491 1491 1491 1491 1490 1490 1490 1490 1490 1490 1491 1491 1491 1491 1491 1492 1492 1493 1494 1494 1494 1495 1495 1496 1497 1497 1497 1498 1498
1490 1490 1490 1489 1490 1490 1490 1490 1489 1489 1489 1489 1489 1489 1488 1488 1488 1487 1487 1487 1487 1486 1487 1487 1487 1488 1488 1488 1489 1489 1489 1490 1491 1491 1492 1492 1493 1493 1494 1495 1495 1495 1495
1488 1488 1488 1488 1488 1488 1487 1487 1487 1487 1487 1487 1487 1486 1486 1485 1485 1484 1484 1484 1484 1484 1484 1484 1484 1484 1485 1486 1486 1486 1486 1487 1488 1489 1489 1490 1490 1491 1491 1492 1492 1492 1492
1486 1486 1486 1486 1486 1485 1485 1485 1486 1485 1485 1485 1485 1484 1483 1482 1482 1481 1481 1481 1480 1481 1481 1481 1482 1482 1482 1483 1483 1483 1483 1484 1485 1485 1486 1487 1487 1488 1488 1489 1489 1489 1489
1483 1483 1483 1483 1484 1484 1484 1484 1484 1483 1483 1482 1482 1481 1480 1479 1479 1478 1478 1478 1477 1478 1478 1478 1478 1479 1479 1480 1480 1480 1481 1482 1482 1482 1483 1483 1484 1484 1485 1485 1486 1486 1486
1481 1481 1481 1481 1481 1481 1481 1481 1482 1481 1480 1479 1479 1478 1477 1476 1476 1476 1476 1475 1475 1475 1475 1475 1476 1476 1476 1477 1477 1478 1479 1479 1480 1480 1480 1480 1481 1481 1482 1482 1482 1482 1482
1478 1478 1478 1478 1478 1478 1478 1479 1479 1478 1477 1477 1476 1476 1475 1474 1473 1473 1473 1473 1473 1472 1472 1473 1473 1473 1473 1474 1474 1475 1476 1477 1477 1478 1478 1478 1478 1479 1479 1479 1479 1479 1479
1475 1475 1475 1475 1476 1476 1476 1476 1476 1475 1475 1475 1474 1473 1473 1472 1471 1470 1470 1470 1470 1469 1469 1470 1470 1470 1471 1471 1471 1473 1473 1474 1474 1475 1475 1476 1476 1476 1476 1477 1476 1476 1476
1472 1472 1473 1473 1473 1473 1473 1473 1473 1473 1473 1472 1471 1471 1470 1469 1468 1469 1468 1467 1467 1467 1467 1467 1467 1467 1467 1468 1468 1469 1470 1471 1472 1472 1473 1473 1473 1474 1474 1474 1474 1474 1474
1469 1470 1470 1471 1471 1471 1470 1470 1470 1470 1470 1470 1469 1468 1467 1467 1466 1466 1465 1465 1465 1464 1464 1464 1464 1465 1465 1465 1466 1466 1467 1468 1469 1470 1470 1471 1471 1471 1471 1472 1472 1472 1472
1466 1467 1468 1468 1468 1468 1468 1468 1467 1467 1467 1467 1466 1466 1465 1465 1464 1464 1463 1463 1462 1462 1462 1462 1462 1463 1463 1463 1464 1464 1465 1466 1466 1467 1468 1469 1469 1469 1470 1470 1470 1470 1470
1464 1465 1465 1466 1466 1466 1466 1465 1465 1465 1464 1463 1464 1463 1463 1463 1462 1462 1461 1461 1460 1460 1460 1460 1460 1461 1461 1461 1462 1462 1463 1464 1464 1465 1466 1466 1467 1467 1467 1467 1468 1468 1469
1460 1461 1462 1462 1463 1463 1463 1463 1463 1463 1462 1461 1461 1460 1460 1460 1460 1459 1459 1459 1458 1458 1458 1458 1458 1458 1459 1459 1460 1461 1461 1462 1462 1463 1463 1464 1464 1465 1465 1465 1466 1466 1467
1457 1458 1458 1459 1459 1460 1460 1460 1460 1460 1460 1459 1459 1458 1458 1458 1457 1457 1456 1456 1456 1456 1456 1456 1456 1456 1457 1457 1458 1459 1459 1460 1460 1461 1461 1462 1462 1463 1463 1463 1464 1464 1465
1454 1455 1455 1456 1457 1456 1456 1457 1457 1457 1457 1457 1457 1456 1456 1456 1455 1455 1454 1454 1454 1454 1454 1454 1454 1454 1455 1455 1456 1456 1457 1458 1458 1459 1459 1459 1460 1460 1461 1461 1462 1462 1462
1451 1452 1452 1453 1454 1453 1453 1453 1454 1454 1454 1454 1454 1454 1453 1453 1453 1453 1453 1452 1452 1452 1452 1452 1452 1453 1453 1453 1454 1454 1455 1456 1456 1456 1457 1457 1457 1458 1458 1458 1459 1459 1459
1448 1448 1449 1449 1450 1450 1450 1450 1451 1451 1451 1451 1451 1451 1451 1451 1451 1451 1451 1450 1450 1450 1450 1450 1450 1451 1451 1452 1452 1453 1453 1453 1454 1454 1454 1454 1455 1455 1455 1455 1456 1456 1457
1445 1446 1446 1446 1446 1447 1447 1448 1448 1448 1448 1448 1448 1448 1448 1448 1448 1449 1449 1449 1449 1448 1448 1449 1449 1449 1449 1450 1450 1451 1451 1451 1451 1451 1451 1451 1452 1452 1452 1453 1453 1453 1454
1443 1443 1444 1444 1444 1444 1445 1445 1445 1446 1445 1445 1445 1445 1446 1446 1446 1446 1446 1446 1446 1447 1447 1447 1447 1447 1447 1448 1448 1448 1448 1448 1448 1448 1448 1449 1449 1449 1450 1450 1450 1450 1451
1441 1441 1441 1441 1441 1442 1442 1442 1443 1443 1443 1443 1443 1443 1443 1443 1443 1443 1444 1444 1444 1445 1445 1445 1445 1445 1445 1445 1446 1445 1445 1446 1445 1445 1445 1445 1446 1446 1447 1447 1447 1447 1448